Regional Weather Roundup
Issued by NWS State College, PA

Home | Current Version | Previous Version | Graphics & Text | Print | Product List | Glossary On
Versions: 1 2 3 4 5 6 7 8 9 10 11 12 13 14 15 16 17 18 19 20 21 22 23 24 25 26 27 28 29 30 31 32 33 34 35 36 37 38 39 40 41 42 43 44 45 46 47 48 49 50
000
ASUS41 KCTP 212110
RWRCTP

REGIONAL WEATHER ROUNDUP
NATIONAL WEATHER SERVICE STATE COLLEGE PA
500 PM EDT MON JUL 21 2014

Note: "fair" indicates few or no clouds below 12,000 feet with no
significant weather and/or obstructions to visibility.

* = STATION THAT DOES NOT REPORT PRECIPITATION /E.G. RAIN...SNOW...ETC/
    THUNDER OR FOG.

PAZ002>004-007>009-013>016-020>023-029>032-212200-
WESTERN PENNSYLVANIA

CITY           SKY/WX    TMP DP  RH WIND       PRES   REMARKS
ERIE           SUNNY     77  64  64 N7        30.13F
MEADVILLE      SUNNY     82  61  48 SW5       30.15S
FRANKLIN*      PTSUNNY   79  64  61 CALM      30.16S
NEW CASTLE       N/A     84  65  52 CALM      30.13S
BEAVER COUNTY  PTSUNNY   82  66  57 CALM      30.13F
BUTLER*        MOSUNNY   82  68  61 N3        30.15S
PITTSBURGH INT MOSUNNY   85  66  53 CALM      30.12F
PITTSBURGH     PTSUNNY   83  65  54 CALM      30.12S
INDIANA*       PTSUNNY   81  66  61 CALM      30.18S
LATROBE        MOSUNNY   84  70  61 SW7       30.13F
WASHINGTON CO* CLOUDY    82  68  61 S6        30.13S
$$

PAZ004>006-010>012-017>019-024>028-033>037-041-042-045-046-049>053-212200-
CENTRAL PENNSYLVANIA

CITY           SKY/WX    TMP DP  RH WIND       PRES   REMARKS
BRADFORD       PTSUNNY   79  64  60 VRB3      30.17F
DUBOIS         MOSUNNY   81  66  60 S5        30.15F
CLEARFIELD     SUNNY     80  67  64 VRB3      30.16F
JOHNSTOWN      LGT RAIN  71  65  81 E8        30.19S
ALTOONA        PTSUNNY   79  68  69 SE7       30.18S
STATE COLLEGE  PTSUNNY   77  68  73 SE5       30.17F
WILLIAMSPORT   MOSUNNY   80  66  62 S8        30.13S
SELINSGROVE    SUNNY     79  66  64 VRB6      30.16S
FT INDIANTOWN  PTSUNNY   77  65  65 S5        30.18S
CAPITAL CITY   CLOUDY    78  66  66 E6        30.16F
HARRISBURG     CLOUDY    79  67  66 SE3       30.16S
YORK           CLOUDY    79  67  66 VRB3      30.17S
$$

PAZ038>040-043-044-047-048-054-055-060>062-067>071-212200-
EASTERN PENNSYLVANIA

CITY           SKY/WX    TMP DP  RH WIND       PRES   REMARKS
SCRANTON       SUNNY     83  61  47 SW8       30.15S
MOUNT POCONO   CLOUDY    76  61  59 S8        30.21S
ALLENTOWN      CLOUDY    82  64  54 SW8       30.14F
QUAKERTOWN*    PTCLDY    82  63  51 S3        30.17F
READING        PTSUNNY   80  62  54 W8        30.15F
LANCASTER      CLOUDY    78  64  61 CALM      30.17S
COATESVILLE    PTCLDY    81  63  54 SW3       30.19S
POTTSTOWN      PTSUNNY   81  61  50 W3        30.17F
BLUE BELL      PTSUNNY   82  61  47 CALM      30.15F
DOYLESTOWN     PTSUNNY   79  65  62 VRB3      30.15F
WILLOW GROVE   NOT AVBL
NORTH PHILA    CLOUDY    83  57  41 CALM      30.17S
PHILADELPHIA   CLOUDY    84  58  40 SW5       30.15S
$$


USA.gov is the U.S. government's official web portal to all federal, state and local government web resources and services.